SCP
-0 0 -0 -0 -1 -0 -0 0 0 0 0 0 0 0 0 0 0 0 0 0 0 -0 0 0 0 0 -0 -0 -0 0 0 0 -0 -0 -0 -0 -0 -0 0 -0 -0 -0 -0
-0 -0 -0 -0 -0 -0 -0 0 0 0 0 0 0 0 0 0 0 0 0 0 0 0 0 0 -0 -0 0 0 0 0 -0 -0 -0 -0 -0 -0 0 -0 0 0 0 0 0
-0 -0 0 -0 -0 -0 0 0 0 0 0 0 0 0 0 0 0 0 0 0 0 0 0 0 -0 -0 0 0 -0 -0 0 0 -0 0 -0 0 0 -0 -0 0 0 0 0
0 0 -0 0 0 0 0 0 0 0 0 0 0 0 0 0 0 0 0 0 0 0 0 0 0 0 -0 -0 0 -0 -0 0 0 0 0 0 0 0 -0 -0 -0 -0 -0
0 -0 -0 0 1 0 0 0 0 1 1 0 0 0 0 0 0 -0 0 -0 -0 -0 0 0 0 -0 0 0 0 0 0 0 0 0 0 0 -0 -0 0 0 0 -0 0
0 0 0 0 0 0 0 0 -0 0 1 1 1 0 0 0 0 0 0 0 0 0 0 0 0 0 -0 -0 -0 -0 0 0 0 0 0 0 0 0 0 0 0 0 0
0 0 0 0 0 0 0 0 0 0 0 1 1 0 0 0 -0 0 0 0 0 0 0 -0 0 0 0 0 0 0 0 -0 -0 0 0 0 0 -0 0 0 0 0 -0
-0 0 0 0 0 -0 0 -0 0 -0 0 0 0 0 0 0 0 0 0 -0 0 0 0 -0 0 0 0 -0 -0 0 -0 -0 0 0 -0 0 -0 0 0 0 0 0 0
0 -0 0 0 -0 -0 -0 0 -0 0 0 -0 0 0 0 0 0 0 0 0 -0 0 0 0 0 0 0 -0 -0 0 -0 0 -0 0 0 0 -0 0 0 0 0 0 0
0 0 0 0 -0 0 -0 0 0 -0 -1 -0 0 1 0 0 0 0 0 -0 -0 -0 0 0 0 0 0 0 0 0 -0 0 0 0 0 0 0 0 0 0 0 0 0
0 0 0 0 0 0 0 -0 -0 -0 0 0 0 0 0 0 0 0 0 -0 -0 0 0 0 0 0 0 -0 0 0 0 0 0 0 0 -0 0 0 0 0 0 0 0
0 0 0 -0 0 0 0 0 0 -0 -0 -0 0 -0 -0 0 0 0 0 0 0 0 0 0 0 0 -0 0 0 0 0 0 0 0 -0 -0 0 0 0 0 0 0 0
0 0 0 0 -0 0 0 0 0 -0 -0 -0 -0 0 0 0 0 0 0 0 0 0 0 0 0 0 -0 0 0 -0 -0 -0 0 0 0 0 0 0 0 0 0 0 0
1 0 0 1 0 0 0 0 0 0 -0 -0 0 0 0 0 0 0 0 0 0 0 0 0 0 0 0 0 -0 -0 -0 -0 0 0 0 0 0 0 0 0 0 0 0
1 1 1 0 1 0 0 1 0 0 0 0 0 0 0 0 0 0 0 0 0 0 0 0 0 0 0 -0 -0 -0 -0 0 0 0 0 -0 -0 0 0 0 0 0 0
1 1 1 1 1 1 0 1 0 0 0 0 0 0 0 0 0 1 0 0 1 1 0 0 0 0 0 -0 0 -0 -0 0 0 0 0 0 0 -0 0 0 0 0 0
1 1 0 0 0 1 1 1 1 1 0 0 0 0 0 0 0 0 0 0 0 0 0 0 0 0 -0 -0 -0 -0 0 -0 0 0 0 0 0 0 0 0 0 0 0
1 0 0 0 0 0 0 0 1 1 2 1 1 0 0 0 1 1 0 0 1 0 0 -0 -0 -0 -0 -0 -0 0 0 0 0 0 0 0 -0 0 0 0 0 0 0
0 0 0 1 1 0 0 0 1 2 1 1 1 1 1 0 1 1 1 1 1 1 0 0 0 -0 0 -0 0 0 0 0 0 0 0 0 0 0 0 0 0 0 0
0 0 0 0 0 0 1 1 1 2 2 2 1 1 1 1 0 1 1 2 1 1 1 1 1 0 0 0 0 0 0 0 0 0 0 0 0 0 0 0 0 -0 -0
0 0 0 0 0 0 0 1 1 1 1 1 1 1 2 1 1 1 1 2 2 2 1 1 1 0 1 0 0 0 0 0 0 0 0 0 0 0 0 0 0 0 0
0 0 0 0 0 0 0 0 0 1 1 1 1 1 1 1 1 1 1 2 2 2 1 1 1 1 0 0 0 0 0 0 0 0 0 0 0 0 0 0 0 0 0
0 0 0 0 0 0 0 0 0 0 0 0 0 0 1 1 1 1 1 1 1 1 2 2 2 1 0 0 0 0 0 0 0 0 0 0 0 0 0 0 0 0 0
0 0 0 0 0 0 0 -0 -0 -0 -0 0 0 0 0 0 1 0 0 -0 1 0 1 1 2 2 0 0 0 0 0 0 0 0 0 0 0 0 0 0 0 0 0
0 0 0 0 0 0 0 0 0 0 0 0 0 0 0 0 1 0 0 -0 -0 0 0 0 0 0 0 0 0 0 0 0 0 0 0 0 0 0 0 0 0 0 0
0 0 0 0 0 0 0 0 0 0 0 0 0 0 0 0 0 0 0 0 0 0 0 0 0 0 0 0 0 0 0 0 0 0 0 0 0 0 0 0 0 0 -0
Wind_Speed_500mb
1 53 50 75 72 68 58 57 39 41 45 36 40 41 37 38 31 27 25 26 17 16 9 10 6 8 8 8 6 4 2 3 9 17 22 27 35 38 30 36 33 27 28
38 32 39 72 74 69 59 52 46 44 46 44 39 32 28 35 37 32 30 26 24 20 16 11 17 15 13 21 20 14 8 8 12 10 9 13 25 34 39 37 45 44 39
53 69 60 60 74 67 63 56 55 50 42 43 35 30 28 29 34 37 37 32 30 28 25 17 18 15 21 19 9 11 9 4 10 8 16 7 13 28 39 43 33 50 50
59 35 46 21 70 69 65 59 57 53 45 41 41 43 38 32 32 31 42 36 34 28 23 24 21 23 23 9 13 10 9 8 9 13 12 21 20 8 19 42 39 46 47
66 69 58 41 59 58 56 65 60 55 48 42 46 44 40 33 23 28 29 39 36 27 34 24 18 17 18 17 12 12 12 14 12 14 12 16 17 18 21 15 16 30 44
82 51 44 36 38 24 44 43 52 51 55 46 43 46 37 31 36 33 39 40 33 32 32 36 30 20 14 11 16 15 14 16 16 15 14 16 14 11 11 13 9 13 21
59 61 49 59 55 24 32 62 60 61 67 51 44 43 35 33 38 41 40 28 37 38 27 34 32 26 22 21 21 22 22 16 11 10 14 13 14 14 19 12 11 15 7
60 74 69 61 7 33 38 65 44 53 47 46 45 38 34 35 35 43 30 17 32 27 21 17 34 31 26 24 20 19 15 17 11 9 10 9 14 16 13 6 9 7 17
41 57 72 49 39 33 40 57 50 63 49 45 42 36 33 38 38 44 37 29 33 38 26 28 31 28 26 24 21 20 15 18 18 12 7 3 11 16 13 13 17 18 16
42 60 63 52 25 24 52 54 32 41 44 42 34 35 33 34 29 36 40 36 28 33 33 32 34 34 29 24 28 28 23 18 9 13 10 11 7 18 15 14 15 18 21
32 39 44 49 26 48 54 67 57 48 46 37 29 31 36 35 31 31 27 34 31 28 39 36 39 40 33 23 30 26 24 22 14 8 14 15 14 11 12 14 12 12 17
29 26 18 40 39 44 49 42 43 48 40 30 32 29 32 32 27 32 36 37 34 37 40 45 35 27 24 23 34 32 22 22 21 12 10 10 14 15 21 19 18 12 12
26 28 24 27 30 51 44 32 29 36 32 26 32 29 33 30 28 29 36 35 38 35 46 45 45 40 27 31 36 33 23 23 24 20 16 17 22 23 28 28 24 25 24
32 19 24 20 10 19 24 29 27 42 27 29 29 35 35 30 27 27 27 28 36 36 43 51 37 34 38 38 32 32 24 28 27 26 21 26 26 30 30 30 27 26 29
31 28 23 20 13 9 11 22 22 29 34 36 39 36 35 37 32 33 31 32 33 43 43 41 51 51 49 41 37 35 32 28 26 24 26 29 29 28 28 34 33 33 35
30 26 22 13 18 13 15 17 21 22 19 29 39 38 37 41 42 37 40 38 35 36 38 44 42 48 46 40 36 32 30 25 26 26 28 31 30 29 31 33 32 35 38
24 22 25 20 12 7 6 10 25 22 21 17 24 39 42 40 42 42 44 45 45 39 35 35 46 46 43 43 38 36 33 37 36 40 41 37 33 32 35 42 43 43 40
18 23 19 22 17 19 17 14 4 21 25 27 26 26 35 46 44 43 46 48 50 50 48 49 48 42 41 40 41 42 37 39 42 38 33 36 38 38 36 41 47 49 48
14 10 18 22 11 14 16 16 12 10 16 26 31 36 36 38 41 43 44 43 47 49 55 53 48 45 46 42 38 39 41 38 33 30 34 35 35 38 43 45 45 45 47
12 11 14 21 12 21 24 19 14 12 4 13 25 33 39 44 45 43 46 47 44 45 41 46 46 46 45 44 42 39 38 36 32 31 35 36 37 42 43 44 47 49 45
11 14 15 20 21 17 20 15 14 18 26 25 25 26 34 41 45 45 52 51 46 42 39 38 40 42 44 43 40 38 38 36 35 36 42 43 46 42 42 42 43 42 43
18 21 29 32 31 29 29 25 21 24 29 32 29 32 35 34 43 52 53 57 49 50 48 47 45 41 45 45 42 38 38 39 41 44 46 44 42 38 37 36 38 38 39
24 27 31 33 33 33 36 42 43 43 40 35 36 39 32 33 40 47 52 53 51 60 60 55 47 50 44 42 39 38 40 43 44 41 44 38 33 31 29 30 31 37 33
28 29 30 32 34 40 48 52 55 55 54 50 43 38 43 37 42 43 44 55 49 63 51 41 40 49 47 42 38 38 37 39 40 37 34 28 24 25 26 27 30 32 28
45 49 52 51 48 42 44 50 55 59 62 60 59 53 44 39 40 41 41 39 29 27 66 37 11 27 35 39 35 34 34 28 31 30 30 24 21 23 25 24 24 30 27
52 50 46 47 48 49 50 53 55 59 63 65 60 57 49 36 35 34 37 29 22 23 16 23 28 36 29 39 31 39 42 29 33 30 27 23 19 23 21 18 15 24 23
Wind_Direction_500mb
225 210 206 192 191 190 194 201 203 194 207 205 208 215 215 210 206 186 203 216 201 182 222 248 158 146 192 221 254 301 91 332 139 181 209 213 213 225 243 234 220 237 235
213 213 202 187 189 190 196 202 206 192 201 212 224 221 224 217 212 211 203 215 207 198 220 244 216 196 205 249 247 223 235 251 221 179 213 234 224 225 230 226 227 221 232
193 209 194 192 193 193 197 204 200 208 220 213 216 222 222 220 216 208 207 202 214 221 230 240 218 223 229 243 257 196 167 226 258 265 225 212 205 220 222 230 234 230 230
168 265 245 193 185 190 198 205 206 212 219 217 221 232 230 227 227 212 213 211 206 209 218 233 240 235 231 232 214 215 206 230 242 273 248 253 253 230 250 233 235 235 232
178 184 210 235 184 181 191 197 201 210 218 219 231 236 235 233 221 206 213 207 204 208 219 232 245 247 236 229 250 257 249 258 261 252 299 265 292 267 268 296 258 251 245
200 189 184 191 179 175 202 200 210 217 221 223 234 239 232 230 223 217 207 200 206 214 218 219 243 250 220 214 262 263 263 255 261 282 266 266 268 234 252 260 338 260 298
181 185 173 165 160 204 226 232 213 216 220 223 225 227 231 237 233 221 204 222 209 211 232 219 232 231 242 238 256 268 273 264 264 262 283 267 243 273 292 258 243 229 241
177 185 173 174 171 210 233 207 208 229 215 224 221 219 224 231 229 227 228 220 207 223 242 223 231 249 241 238 251 258 269 263 260 281 278 266 242 269 280 289 293 262 250
138 174 174 183 145 177 179 169 196 218 208 215 222 219 220 227 229 227 234 244 221 222 229 232 238 254 243 241 262 266 272 268 281 258 265 282 208 274 298 290 280 312 312
144 171 182 180 148 187 192 181 183 222 217 210 220 228 230 225 226 223 222 224 219 212 219 227 250 234 237 244 263 275 263 260 262 239 286 266 249 279 295 296 295 304 310
110 158 195 186 194 171 188 202 199 199 207 206 210 213 232 228 229 222 224 219 218 223 222 230 230 231 226 232 250 256 249 266 263 251 266 286 288 292 319 310 289 282 288
105 129 111 188 186 180 174 179 192 197 210 216 216 213 224 222 219 227 217 212 217 226 223 230 230 237 226 242 256 252 247 262 253 253 251 279 295 286 289 301 290 292 297
115 109 108 143 176 180 187 199 205 202 211 210 210 219 233 231 231 228 218 216 218 232 228 220 227 225 237 251 247 248 248 253 251 256 253 280 291 296 302 306 299 294 285
88 91 128 139 149 218 225 216 215 212 212 206 214 232 237 231 231 228 224 227 227 223 230 240 235 234 242 247 244 245 242 245 250 260 254 264 271 283 293 296 301 311 303
62 59 88 124 173 217 241 236 225 221 235 215 222 221 232 243 232 230 234 232 237 225 228 233 237 243 247 244 244 247 243 251 263 262 265 267 274 276 287 292 297 300 302
42 35 40 74 111 206 222 232 234 236 229 234 227 219 229 234 237 229 231 232 240 236 234 233 236 239 243 246 245 234 245 271 274 281 280 280 285 289 281 282 291 289 285
42 19 14 8 31 85 97 238 260 268 263 257 238 226 228 233 238 236 233 239 242 239 239 243 239 240 243 244 231 236 254 252 260 270 276 279 284 284 280 282 290 293 288
39 31 17 351 28 16 357 315 309 251 260 260 257 247 236 238 244 240 239 237 240 240 239 238 248 239 241 237 231 231 242 249 261 268 272 279 285 285 287 294 296 295 296
32 13 11 38 45 19 3 339 6 264 241 256 260 256 250 244 245 245 247 243 242 244 243 242 243 239 237 234 232 235 245 254 258 267 277 277 276 286 294 296 301 304 304
18 360 338 349 3 19 12 7 10 354 276 260 261 260 261 256 253 249 246 245 246 246 240 235 233 232 231 231 235 236 240 248 256 266 267 269 278 289 293 299 303 307 307
292 315 329 332 334 331 344 354 351 316 320 305 286 274 256 263 266 253 251 244 241 242 239 233 228 226 228 232 232 235 241 248 259 258 260 266 275 283 293 299 302 305 307
273 284 298 297 300 308 311 317 319 315 314 320 317 292 276 272 265 260 252 245 237 235 230 224 224 222 225 227 230 232 239 249 255 255 258 264 274 284 292 299 305 314 316
298 295 288 287 294 300 301 303 307 305 302 303 312 310 306 287 279 278 274 259 242 244 227 220 216 215 223 225 228 238 249 249 252 247 256 261 270 280 288 301 315 322 315
317 315 309 304 296 293 294 297 300 304 306 298 292 303 304 299 299 292 291 285 266 246 223 226 229 223 226 236 245 254 262 272 253 241 248 258 271 285 298 316 321 331 331
310 306 302 298 295 295 290 291 293 296 300 301 300 289 291 301 315 299 302 309 312 270 346 344 275 232 242 241 244 258 286 279 250 240 247 248 264 293 306 319 331 355 354
296 291 290 290 291 293 293 294 295 296 293 294 297 297 286 279 291 290 295 311 309 265 289 252 268 226 249 249 249 264 268 275 253 239 246 241 248 277 301 322 351 11 14
Wind_Speed_850mb
1 53 50 75 72 68 58 57 39 41 45 36 40 41 37 38 31 27 25 26 17 16 9 10 6 8 8 8 6 4 2 3 9 17 22 27 35 38 30 36 33 27 28
38 32 39 72 74 69 59 52 46 44 46 44 39 32 28 35 37 32 30 26 24 20 16 11 17 15 13 21 20 14 8 8 12 10 9 13 25 34 39 37 45 44 39
53 69 60 60 74 67 63 56 55 50 42 43 35 30 28 29 34 37 37 32 30 28 25 17 18 15 21 19 9 11 9 4 10 8 16 7 13 28 39 43 33 50 50
59 35 46 21 70 69 65 59 57 53 45 41 41 43 38 32 32 31 42 36 34 28 23 24 21 23 23 9 13 10 9 8 9 13 12 21 20 8 19 42 39 46 47
66 69 58 41 59 58 56 65 60 55 48 42 46 44 40 33 23 28 29 39 36 27 34 24 18 17 18 17 12 12 12 14 12 14 12 16 17 18 21 15 16 30 44
82 51 44 36 38 24 44 43 52 51 55 46 43 46 37 31 36 33 39 40 33 32 32 36 30 20 14 11 16 15 14 16 16 15 14 16 14 11 11 13 9 13 21
59 61 49 59 55 24 32 62 60 61 67 51 44 43 35 33 38 41 40 28 37 38 27 34 32 26 22 21 21 22 22 16 11 10 14 13 14 14 19 12 11 15 7
60 74 69 61 7 33 38 65 44 53 47 46 45 38 34 35 35 43 30 17 32 27 21 17 34 31 26 24 20 19 15 17 11 9 10 9 14 16 13 6 9 7 17
41 57 72 49 39 33 40 57 50 63 49 45 42 36 33 38 38 44 37 29 33 38 26 28 31 28 26 24 21 20 15 18 18 12 7 3 11 16 13 13 17 18 16
42 60 63 52 25 24 52 54 32 41 44 42 34 35 33 34 29 36 40 36 28 33 33 32 34 34 29 24 28 28 23 18 9 13 10 11 7 18 15 14 15 18 21
32 39 44 49 26 48 54 67 57 48 46 37 29 31 36 35 31 31 27 34 31 28 39 36 39 40 33 23 30 26 24 22 14 8 14 15 14 11 12 14 12 12 17
29 26 18 40 39 44 49 42 43 48 40 30 32 29 32 32 27 32 36 37 34 37 40 45 35 27 24 23 34 32 22 22 21 12 10 10 14 15 21 19 18 12 12
26 28 24 27 30 51 44 32 29 36 32 26 32 29 33 30 28 29 36 35 38 35 46 45 45 40 27 31 36 33 23 23 24 20 16 17 22 23 28 28 24 25 24
32 19 24 20 10 19 24 29 27 42 27 29 29 35 35 30 27 27 27 28 36 36 43 51 37 34 38 38 32 32 24 28 27 26 21 26 26 30 30 30 27 26 29
31 28 23 20 13 9 11 22 22 29 34 36 39 36 35 37 32 33 31 32 33 43 43 41 51 51 49 41 37 35 32 28 26 24 26 29 29 28 28 34 33 33 35
30 26 22 13 18 13 15 17 21 22 19 29 39 38 37 41 42 37 40 38 35 36 38 44 42 48 46 40 36 32 30 25 26 26 28 31 30 29 31 33 32 35 38
24 22 25 20 12 7 6 10 25 22 21 17 24 39 42 40 42 42 44 45 45 39 35 35 46 46 43 43 38 36 33 37 36 40 41 37 33 32 35 42 43 43 40
18 23 19 22 17 19 17 14 4 21 25 27 26 26 35 46 44 43 46 48 50 50 48 49 48 42 41 40 41 42 37 39 42 38 33 36 38 38 36 41 47 49 48
14 10 18 22 11 14 16 16 12 10 16 26 31 36 36 38 41 43 44 43 47 49 55 53 48 45 46 42 38 39 41 38 33 30 34 35 35 38 43 45 45 45 47
12 11 14 21 12 21 24 19 14 12 4 13 25 33 39 44 45 43 46 47 44 45 41 46 46 46 45 44 42 39 38 36 32 31 35 36 37 42 43 44 47 49 45
11 14 15 20 21 17 20 15 14 18 26 25 25 26 34 41 45 45 52 51 46 42 39 38 40 42 44 43 40 38 38 36 35 36 42 43 46 42 42 42 43 42 43
18 21 29 32 31 29 29 25 21 24 29 32 29 32 35 34 43 52 53 57 49 50 48 47 45 41 45 45 42 38 38 39 41 44 46 44 42 38 37 36 38 38 39
24 27 31 33 33 33 36 42 43 43 40 35 36 39 32 33 40 47 52 53 51 60 60 55 47 50 44 42 39 38 40 43 44 41 44 38 33 31 29 30 31 37 33
28 29 30 32 34 40 48 52 55 55 54 50 43 38 43 37 42 43 44 55 49 63 51 41 40 49 47 42 38 38 37 39 40 37 34 28 24 25 26 27 30 32 28
45 49 52 51 48 42 44 50 55 59 62 60 59 53 44 39 40 41 41 39 29 27 66 37 11 27 35 39 35 34 34 28 31 30 30 24 21 23 25 24 24 30 27
52 50 46 47 48 49 50 53 55 59 63 65 60 57 49 36 35 34 37 29 22 23 16 23 28 36 29 39 31 39 42 29 33 30 27 23 19 23 21 18 15 24 23
Wind_Direction_850mb
225 210 206 192 191 190 194 201 203 194 207 205 208 215 215 210 206 186 203 216 201 182 222 248 158 146 192 221 254 301 91 332 139 181 209 213 213 225 243 234 220 237 235
213 213 202 187 189 190 196 202 206 192 201 212 224 221 224 217 212 211 203 215 207 198 220 244 216 196 205 249 247 223 235 251 221 179 213 234 224 225 230 226 227 221 232
193 209 194 192 193 193 197 204 200 208 220 213 216 222 222 220 216 208 207 202 214 221 230 240 218 223 229 243 257 196 167 226 258 265 225 212 205 220 222 230 234 230 230
168 265 245 193 185 190 198 205 206 212 219 217 221 232 230 227 227 212 213 211 206 209 218 233 240 235 231 232 214 215 206 230 242 273 248 253 253 230 250 233 235 235 232
178 184 210 235 184 181 191 197 201 210 218 219 231 236 235 233 221 206 213 207 204 208 219 232 245 247 236 229 250 257 249 258 261 252 299 265 292 267 268 296 258 251 245
200 189 184 191 179 175 202 200 210 217 221 223 234 239 232 230 223 217 207 200 206 214 218 219 243 250 220 214 262 263 263 255 261 282 266 266 268 234 252 260 338 260 298
181 185 173 165 160 204 226 232 213 216 220 223 225 227 231 237 233 221 204 222 209 211 232 219 232 231 242 238 256 268 273 264 264 262 283 267 243 273 292 258 243 229 241
177 185 173 174 171 210 233 207 208 229 215 224 221 219 224 231 229 227 228 220 207 223 242 223 231 249 241 238 251 258 269 263 260 281 278 266 242 269 280 289 293 262 250
138 174 174 183 145 177 179 169 196 218 208 215 222 219 220 227 229 227 234 244 221 222 229 232 238 254 243 241 262 266 272 268 281 258 265 282 208 274 298 290 280 312 312
144 171 182 180 148 187 192 181 183 222 217 210 220 228 230 225 226 223 222 224 219 212 219 227 250 234 237 244 263 275 263 260 262 239 286 266 249 279 295 296 295 304 310
110 158 195 186 194 171 188 202 199 199 207 206 210 213 232 228 229 222 224 219 218 223 222 230 230 231 226 232 250 256 249 266 263 251 266 286 288 292 319 310 289 282 288
105 129 111 188 186 180 174 179 192 197 210 216 216 213 224 222 219 227 217 212 217 226 223 230 230 237 226 242 256 252 247 262 253 253 251 279 295 286 289 301 290 292 297
115 109 108 143 176 180 187 199 205 202 211 210 210 219 233 231 231 228 218 216 218 232 228 220 227 225 237 251 247 248 248 253 251 256 253 280 291 296 302 306 299 294 285
88 91 128 139 149 218 225 216 215 212 212 206 214 232 237 231 231 228 224 227 227 223 230 240 235 234 242 247 244 245 242 245 250 260 254 264 271 283 293 296 301 311 303
62 59 88 124 173 217 241 236 225 221 235 215 222 221 232 243 232 230 234 232 237 225 228 233 237 243 247 244 244 247 243 251 263 262 265 267 274 276 287 292 297 300 302
42 35 40 74 111 206 222 232 234 236 229 234 227 219 229 234 237 229 231 232 240 236 234 233 236 239 243 246 245 234 245 271 274 281 280 280 285 289 281 282 291 289 285
42 19 14 8 31 85 97 238 260 268 263 257 238 226 228 233 238 236 233 239 242 239 239 243 239 240 243 244 231 236 254 252 260 270 276 279 284 284 280 282 290 293 288
39 31 17 351 28 16 357 315 309 251 260 260 257 247 236 238 244 240 239 237 240 240 239 238 248 239 241 237 231 231 242 249 261 268 272 279 285 285 287 294 296 295 296
32 13 11 38 45 19 3 339 6 264 241 256 260 256 250 244 245 245 247 243 242 244 243 242 243 239 237 234 232 235 245 254 258 267 277 277 276 286 294 296 301 304 304
18 360 338 349 3 19 12 7 10 354 276 260 261 260 261 256 253 249 246 245 246 246 240 235 233 232 231 231 235 236 240 248 256 266 267 269 278 289 293 299 303 307 307
292 315 329 332 334 331 344 354 351 316 320 305 286 274 256 263 266 253 251 244 241 242 239 233 228 226 228 232 232 235 241 248 259 258 260 266 275 283 293 299 302 305 307
273 284 298 297 300 308 311 317 319 315 314 320 317 292 276 272 265 260 252 245 237 235 230 224 224 222 225 227 230 232 239 249 255 255 258 264 274 284 292 299 305 314 316
298 295 288 287 294 300 301 303 307 305 302 303 312 310 306 287 279 278 274 259 242 244 227 220 216 215 223 225 228 238 249 249 252 247 256 261 270 280 288 301 315 322 315
317 315 309 304 296 293 294 297 300 304 306 298 292 303 304 299 299 292 291 285 266 246 223 226 229 223 226 236 245 254 262 272 253 241 248 258 271 285 298 316 321 331 331
310 306 302 298 295 295 290 291 293 296 300 301 300 289 291 301 315 299 302 309 312 270 346 344 275 232 242 241 244 258 286 279 250 240 247 248 264 293 306 319 331 355 354
296 291 290 290 291 293 293 294 295 296 293 294 297 297 286 279 291 290 295 311 309 265 289 252 268 226 249 249 249 264 268 275 253 239 246 241 248 277 301 322 351 11 14